Regional Weather Roundup
Issued by NWS

Home | Current Version | Previous Version | Text Only | Print | Product List | Glossary Off
Versions: 1 2 3 4 5 6 7 8 9 10 11 12 13 14 15 16 17 18 19 20 21 22 23 24 25 26 27 28 29 30 31 32 33 34 35 36 37 38 39 40 41 42 43 44 45 46 47 48 49 50

000
ASUS43 KBIS 300010
RWRND

NORTH DAKOTA REGIONAL WEATHER ROUNDUP
NATIONAL WEATHER SERVICE BISMARCK ND
700 PM CDT FRI JUL 29 2016

NOTE: "FAIR" INDICATES FEW OR NO CLOUDS BELOW 12,000 FEET WITH NO
SIGNIFICANT WEATHER AND/OR OBSTRUCTIONS TO VISIBILITY.


NDZ001>003-009>011-017-300100-
NORTHWEST NORTH DAKOTA

CITY           SKY/WX    TMP DP  RH WIND       PRES   REMARKS
WILLISTON      PTSUNNY   83  48  29 NE5       29.97F
6HR MIN TEMP:  77; 6HR MAX TEMP:  83;

MINOT          SUNNY     82  57  42 SW9       29.97F
MINOT AFB      PTSUNNY   80  58  47 VRB6      29.95F
$$

NDZ018>021-031>035-040>046-300100-
SOUTHWEST NORTH DAKOTA

CITY           SKY/WX    TMP DP  RH WIND       PRES   REMARKS
BISMARCK       SUNNY     80  62  54 S13       29.98F
6HR MIN TEMP:  76; 6HR MAX TEMP:  82;

DICKINSON      CLOUDY    76  50  40 SE5       29.97F
GARRISON         N/A     78  61  55 S3        29.98F
6HR MIN TEMP:  73; 6HR MAX TEMP:  79;

HETTINGER ARPT SUNNY     81  49  32 S7        29.99F
$$

NDZ004>008-012>016-024-026-027-054-300100-
NORTHEAST NORTH DAKOTA

CITY           SKY/WX    TMP DP  RH WIND       PRES   REMARKS
GRAND FORKS    MOSUNNY   81  55  40 CALM      29.99F
GRND FRKS AFB  CLOUDY    77  56  47 SW3       30.00F
DEVILS LAKE    MOSUNNY   76  60  57 SE8       30.00F
$$

NDZ022-023-025-028>030-036>039-047>053-300100-
SOUTHEAST NORTH DAKOTA

CITY           SKY/WX    TMP DP  RH WIND       PRES   REMARKS
FARGO          CLOUDY    80  61  52 CALM      29.99F
6HR MIN TEMP:  77; 6HR MAX TEMP:  81;

JAMESTOWN      MOSUNNY   76  62  62 S10       30.00F
$$




USA.gov is the U.S. government's official web portal to all federal, state and local government web resources and services.